Location: Krakow
(50.0830°N, 19.9170°E)
Time: 07:46:02
(UTC+02:00)

Tiros 1 despin weight - Pass Details

Date: 21 March 2026
Orbit: 555 x 592 km, 48.2° (Epoch: 18 April)

Event Time Altitude Azimuth Distance (km) Brightness Sun altitude
Rises 04:18:23 0° 252° (WSW) 2,819 - -13.9°
Reaches altitude 10° 04:20:42 10° 249° (WSW) 1,917 - -13.6°
Exits shadow 04:22:14 21° 244° (WSW) 1,342 ? -13.3°
Maximum altitude 04:25:02 62° 169° (S) 665 ? -12.9°
Drops below altitude 10° 04:29:21 10° 89° (E) 1,904 ? -12.2°
Sets 04:31:38 0° 86° (E) 2,799 ? -11.9°
